Time,TemperatureF,DewpointF,PressureIn,WindDirection,WindDirectionDegrees,WindSpeedMPH,WindSpeedGustMPH,Humidity,HourlyPrecipIn,Conditions,Clouds,dailyrainin,SolarRadiationWatts/m^2,SoftwareType,DateUTC
2013-01-11 00:02:00,38.2,34.0,30.29,NW,325,1.0,2.0,85,0.00,,,0.03,0,weatherlink.com 1.10,2013-01-11 08:02:00,
2013-01-11 00:17:00,37.5,34.0,30.29,NW,325,2.0,5.0,87,0.00,,,0.03,0,weatherlink.com 1.10,2013-01-11 08:17:00,
2013-01-11 00:32:00,37.3,34.0,30.29,NW,325,1.0,3.0,88,0.00,,,0.03,0,weatherlink.com 1.10,2013-01-11 08:32:00,
2013-01-11 00:47:00,36.8,34.0,30.29,NW,326,2.0,4.0,88,0.00,,,0.00,0,weatherlink.com 1.10,2013-01-11 08:47:00,
2013-01-11 01:02:00,36.4,34.0,30.29,NNW,331,3.0,4.0,90,0.00,,,0.00,0,weatherlink.com 1.10,2013-01-11 09:02:00,
2013-01-11 01:17:00,35.7,33.0,30.29,NNW,331,4.0,4.0,90,0.00,,,0.00,0,weatherlink.com 1.10,2013-01-11 09:17:00,
2013-01-11 01:32:00,35.9,33.0,30.29,NNW,331,2.0,3.0,90,0.00,,,0.00,0,weatherlink.com 1.10,2013-01-11 09:32:00,
2013-01-11 01:47:00,35.3,33.0,30.30,NNW,331,2.0,4.0,91,0.00,,,0.00,0,weatherlink.com 1.10,2013-01-11 09:47:00,
2013-01-11 02:02:00,35.4,33.0,30.30,NNW,332,2.0,4.0,91,0.00,,,0.00,0,weatherlink.com 1.10,2013-01-11 10:02:00,
2013-01-11 02:17:00,35.1,33.0,30.30,NNW,332,1.0,4.0,92,0.00,,,0.00,0,weatherlink.com 1.10,2013-01-11 10:17:00,
2013-01-11 02:32:00,35.2,33.0,30.30,NNW,332,1.0,4.0,92,0.00,,,0.00,0,weatherlink.com 1.10,2013-01-11 10:32:00,
2013-01-11 02:48:00,35.3,33.0,30.30,NNW,332,1.0,3.0,92,0.00,,,0.00,0,weatherlink.com 1.10,2013-01-11 10:48:00,
2013-01-11 03:03:00,35.0,33.0,30.29,NNW,332,2.0,3.0,92,0.00,,,0.00,0,weatherlink.com 1.10,2013-01-11 11:03:00,
2013-01-11 03:18:00,35.1,33.0,30.29,NNW,332,0.0,3.0,93,0.00,,,0.00,0,weatherlink.com 1.10,2013-01-11 11:18:00,
2013-01-11 03:33:00,34.8,33.0,30.29,NNW,332,2.0,4.0,93,0.00,,,0.00,0,weatherlink.com 1.10,2013-01-11 11:33:00,
2013-01-11 03:48:00,34.7,33.0,30.29,NNW,332,3.0,3.0,93,0.00,,,0.00,0,weatherlink.com 1.10,2013-01-11 11:48:00,
2013-01-11 04:03:00,34.8,33.0,30.29,NNW,332,1.0,3.0,93,0.00,,,0.00,0,weatherlink.com 1.10,2013-01-11 12:03:00,
2013-01-11 04:18:00,34.6,33.0,30.29,NNW,332,3.0,4.0,93,0.00,,,0.00,0,weatherlink.com 1.10,2013-01-11 12:18:00,
2013-01-11 04:33:00,34.6,33.0,30.29,NNW,332,2.0,4.0,93,0.00,,,0.00,0,weatherlink.com 1.10,2013-01-11 12:33:00,
2013-01-11 04:48:00,34.8,33.0,30.29,NNW,332,2.0,4.0,93,0.00,,,0.00,0,weatherlink.com 1.10,2013-01-11 12:48:00,
2013-01-11 05:03:00,35.0,33.0,30.29,NNW,332,1.0,2.0,93,0.00,,,0.00,0,weatherlink.com 1.10,2013-01-11 13:03:00,
2013-01-11 05:18:00,34.5,33.0,30.29,NNW,332,2.0,4.0,93,0.00,,,0.00,0,weatherlink.com 1.10,2013-01-11 13:18:00,
2013-01-11 05:33:00,34.1,32.0,30.29,NNW,333,0.0,4.0,93,0.00,,,0.00,0,weatherlink.com 1.10,2013-01-11 13:33:00,
2013-01-11 05:48:00,34.2,33.0,30.29,NNW,333,1.0,3.0,94,0.00,,,0.00,0,weatherlink.com 1.10,2013-01-11 13:48:00,
2013-01-11 06:03:00,34.0,32.0,30.30,NNW,336,3.0,5.0,93,0.00,,,0.00,0,weatherlink.com 1.10,2013-01-11 14:03:00,
2013-01-11 06:18:00,33.7,32.0,30.30,NNW,336,1.0,4.0,94,0.00,,,0.00,0,weatherlink.com 1.10,2013-01-11 14:18:00,
2013-01-11 06:33:00,33.7,32.0,30.30,NNW,336,2.0,3.0,94,0.00,,,0.00,0,weatherlink.com 1.10,2013-01-11 14:33:00,
2013-01-11 06:48:00,33.8,32.0,30.30,NNW,336,1.0,4.0,94,0.00,,,0.00,0,weatherlink.com 1.10,2013-01-11 14:48:00,
2013-01-11 07:03:00,33.8,32.0,30.31,NNW,336,3.0,4.0,94,0.00,,,0.00,0,weatherlink.com 1.10,2013-01-11 15:03:00,
2013-01-11 07:18:00,34.3,33.0,30.31,NNW,338,4.0,4.0,94,0.00,,,0.00,0,weatherlink.com 1.10,2013-01-11 15:18:00,
2013-01-11 07:33:00,34.5,33.0,30.32,NNW,338,2.0,3.0,94,0.00,,,0.00,5,weatherlink.com 1.10,2013-01-11 15:33:00,
2013-01-11 07:48:00,35.0,34.0,30.32,NNW,338,3.0,4.0,94,0.00,,,0.00,16,weatherlink.com 1.10,2013-01-11 15:48:00,
2013-01-11 08:03:00,35.6,34.0,30.32,NNW,338,4.0,4.0,94,0.00,,,0.00,21,weatherlink.com 1.10,2013-01-11 16:03:00,
2013-01-11 08:18:00,36.4,35.0,30.32,NNW,338,2.0,4.0,94,0.00,,,0.00,30,weatherlink.com 1.10,2013-01-11 16:18:00,
2013-01-11 08:33:00,37.3,36.0,30.32,NNW,340,2.0,5.0,95,0.00,,,0.00,44,weatherlink.com 1.10,2013-01-11 16:33:00,
2013-01-11 08:48:00,38.3,37.0,30.32,North,355,3.0,5.0,94,0.00,,,0.00,76,weatherlink.com 1.10,2013-01-11 16:48:00,
2013-01-11 09:03:00,39.7,38.0,30.32,North,360,2.0,4.0,93,0.00,,,0.00,95,weatherlink.com 1.10,2013-01-11 17:03:00,
2013-01-11 09:18:00,40.7,39.0,30.32,North,360,4.0,4.0,92,0.00,,,0.00,107,weatherlink.com 1.10,2013-01-11 17:18:00,
2013-01-11 09:33:00,41.7,39.0,30.32,North,360,1.0,3.0,91,0.00,,,0.00,132,weatherlink.com 1.10,2013-01-11 17:33:00,
2013-01-11 09:48:00,43.1,40.0,30.32,North,360,1.0,3.0,89,0.00,,,0.00,207,weatherlink.com 1.10,2013-01-11 17:48:00,
2013-01-11 10:03:00,44.2,40.0,30.32,North,360,3.0,5.0,86,0.00,,,0.00,174,weatherlink.com 1.10,2013-01-11 18:03:00,
2013-01-11 10:19:00,45.1,41.0,30.31,North,360,4.0,4.0,85,0.00,,,0.00,192,weatherlink.com 1.10,2013-01-11 18:19:00,
2013-01-11 10:34:00,45.7,41.0,30.31,North,360,2.0,5.0,84,0.00,,,0.00,290,weatherlink.com 1.10,2013-01-11 18:34:00,
2013-01-11 10:49:00,46.1,41.0,30.30,North,355,0.0,7.0,82,0.00,,,0.00,227,weatherlink.com 1.10,2013-01-11 18:49:00,
2013-01-11 11:04:00,47.2,42.0,30.30,WNW,296,6.0,7.0,81,0.00,,,0.00,209,weatherlink.com 1.10,2013-01-11 19:04:00,
2013-01-11 11:19:00,47.8,41.0,30.29,North,11,3.0,7.0,78,0.00,,,0.00,591,weatherlink.com 1.10,2013-01-11 19:19:00,
2013-01-11 11:34:00,48.6,42.0,30.28,West,275,9.0,11.0,77,0.00,,,0.00,369,weatherlink.com 1.10,2013-01-11 19:34:00,
2013-01-11 11:49:00,48.2,41.0,30.27,NW,313,6.0,11.0,76,0.00,,,0.00,608,weatherlink.com 1.10,2013-01-11 19:49:00,
2013-01-11 12:04:00,48.8,42.0,30.26,WNW,296,5.0,13.0,77,0.00,,,0.00,336,weatherlink.com 1.10,2013-01-11 20:04:00,
2013-01-11 12:19:00,48.5,42.0,30.26,WNW,285,8.0,12.0,77,0.00,,,0.00,403,weatherlink.com 1.10,2013-01-11 20:19:00,
2013-01-11 12:34:00,48.6,42.0,30.25,WNW,289,9.0,14.0,77,0.00,,,0.00,548,weatherlink.com 1.10,2013-01-11 20:34:00,
2013-01-11 12:49:00,48.9,42.0,30.24,NW,308,8.0,14.0,77,0.00,,,0.00,515,weatherlink.com 1.10,2013-01-11 20:49:00,
2013-01-11 13:04:00,49.2,43.0,30.23,NW,306,6.0,13.0,78,0.00,,,0.00,503,weatherlink.com 1.10,2013-01-11 21:04:00,
2013-01-11 13:19:00,49.2,43.0,30.22,NW,309,9.0,14.0,78,0.00,,,0.00,489,weatherlink.com 1.10,2013-01-11 21:19:00,
2013-01-11 13:34:00,49.1,43.0,30.22,NW,304,6.0,14.0,78,0.00,,,0.00,468,weatherlink.com 1.10,2013-01-11 21:34:00,
2013-01-11 13:49:00,49.0,43.0,30.22,NW,319,5.0,17.0,79,0.00,,,0.00,450,weatherlink.com 1.10,2013-01-11 21:49:00,
2013-01-11 14:04:00,49.0,43.0,30.22,WNW,282,11.0,16.0,79,0.00,,,0.00,425,weatherlink.com 1.10,2013-01-11 22:04:00,
2013-01-11 14:19:00,48.8,43.0,30.22,NW,304,5.0,15.0,79,0.00,,,0.00,396,weatherlink.com 1.10,2013-01-11 22:19:00,
2013-01-11 14:34:00,49.0,43.0,30.22,NW,308,8.0,16.0,79,0.00,,,0.00,366,weatherlink.com 1.10,2013-01-11 22:34:00,
2013-01-11 14:49:00,49.0,43.0,30.22,NNW,333,7.0,16.0,80,0.00,,,0.00,332,weatherlink.com 1.10,2013-01-11 22:49:00,
2013-01-11 15:04:00,48.8,43.0,30.22,WNW,302,8.0,17.0,80,0.00,,,0.00,297,weatherlink.com 1.10,2013-01-11 23:04:00,
2013-01-11 15:19:00,48.8,43.0,30.22,NW,315,9.0,16.0,81,0.00,,,0.00,258,weatherlink.com 1.10,2013-01-11 23:19:00,
2013-01-11 15:34:00,48.7,43.0,30.22,WNW,300,12.0,16.0,80,0.00,,,0.00,216,weatherlink.com 1.10,2013-01-11 23:34:00,
2013-01-11 15:49:00,48.5,42.0,30.21,NNW,331,7.0,15.0,79,0.00,,,0.00,179,weatherlink.com 1.10,2013-01-11 23:49:00,
2013-01-11 16:04:00,48.1,42.0,30.21,NNW,333,9.0,14.0,79,0.00,,,0.00,137,weatherlink.com 1.10,2013-01-12 00:04:00,
2013-01-11 16:19:00,47.9,42.0,30.21,WNW,298,9.0,11.0,79,0.00,,,0.00,93,weatherlink.com 1.10,2013-01-12 00:19:00,
2013-01-11 16:34:00,47.5,41.0,30.21,NNW,333,5.0,14.0,79,0.00,,,0.00,47,weatherlink.com 1.10,2013-01-12 00:34:00,
2013-01-11 16:49:00,47.0,41.0,30.21,NNW,339,10.0,11.0,80,0.00,,,0.00,23,weatherlink.com 1.10,2013-01-12 00:49:00,
2013-01-11 17:04:00,46.3,40.0,30.21,NW,320,2.0,10.0,80,0.00,,,0.00,11,weatherlink.com 1.10,2013-01-12 01:04:00,
2013-01-11 17:19:00,45.8,40.0,30.21,North,360,7.0,11.0,81,0.00,,,0.00,0,weatherlink.com 1.10,2013-01-12 01:19:00,
2013-01-11 17:34:00,45.3,40.0,30.21,North,360,0.0,8.0,82,0.00,,,0.00,0,weatherlink.com 1.10,2013-01-12 01:34:00,
2013-01-11 17:49:00,44.6,39.0,30.22,NNE,33,0.0,7.0,82,0.00,,,0.00,0,weatherlink.com 1.10,2013-01-12 01:49:00,
2013-01-11 18:04:00,44.0,39.0,30.22,NNE,32,1.0,4.0,83,0.00,,,0.00,0,weatherlink.com 1.10,2013-01-12 02:04:00,
2013-01-11 18:19:00,43.6,39.0,30.23,NNE,32,2.0,4.0,84,0.00,,,0.00,0,weatherlink.com 1.10,2013-01-12 02:19:00,
2013-01-11 18:35:00,43.3,39.0,30.23,NNE,32,1.0,4.0,84,0.00,,,0.00,0,weatherlink.com 1.10,2013-01-12 02:35:00,
2013-01-11 18:50:00,42.9,39.0,30.23,North,5,0.0,5.0,86,0.00,,,0.00,0,weatherlink.com 1.10,2013-01-12 02:50:00,
2013-01-11 19:05:00,43.1,39.0,30.23,North,5,3.0,6.0,86,0.00,,,0.00,0,weatherlink.com 1.10,2013-01-12 03:05:00,
2013-01-11 19:20:00,42.2,38.0,30.23,North,5,1.0,3.0,85,0.00,,,0.00,0,weatherlink.com 1.10,2013-01-12 03:20:00,
2013-01-11 19:35:00,40.4,37.0,30.23,North,5,1.0,4.0,86,0.00,,,0.00,0,weatherlink.com 1.10,2013-01-12 03:35:00,
2013-01-11 19:50:00,39.2,36.0,30.23,NNE,24,1.0,4.0,89,0.00,,,0.00,0,weatherlink.com 1.10,2013-01-12 03:50:00,
2013-01-11 20:20:00,38.1,36.0,30.24,NNE,24,2.0,5.0,90,0.00,,,0.00,0,weatherlink.com 1.10,2013-01-12 04:20:00,
2013-01-11 20:35:00,37.7,35.0,30.24,NNE,24,3.0,5.0,91,0.00,,,0.00,0,weatherlink.com 1.10,2013-01-12 04:35:00,
2013-01-11 20:50:00,37.7,36.0,30.23,NNE,24,4.0,6.0,92,0.00,,,0.00,0,weatherlink.com 1.10,2013-01-12 04:50:00,
2013-01-11 21:05:00,40.5,38.0,30.24,NNE,33,5.0,8.0,89,0.00,,,0.00,0,weatherlink.com 1.10,2013-01-12 05:05:00,
2013-01-11 21:20:00,41.9,37.0,30.23,NNE,22,7.0,8.0,83,0.00,,,0.00,0,weatherlink.com 1.10,2013-01-12 05:20:00,
2013-01-11 21:35:00,41.6,37.0,30.24,NNE,29,1.0,7.0,82,0.00,,,0.00,0,weatherlink.com 1.10,2013-01-12 05:35:00,
2013-01-11 21:50:00,40.5,35.0,30.24,NNE,29,1.0,2.0,82,0.00,,,0.00,0,weatherlink.com 1.10,2013-01-12 05:50:00,
2013-01-11 22:05:00,38.8,35.0,30.25,NNE,29,0.0,1.0,85,0.00,,,0.00,0,weatherlink.com 1.10,2013-01-12 06:05:00,
2013-01-11 22:20:00,38.4,35.0,30.25,NNE,29,1.0,5.0,87,0.00,,,0.00,0,weatherlink.com 1.10,2013-01-12 06:20:00,
2013-01-11 22:35:00,38.0,35.0,30.25,NNE,29,0.0,4.0,88,0.00,,,0.00,0,weatherlink.com 1.10,2013-01-12 06:35:00,
2013-01-11 22:50:00,37.0,34.0,30.26,NNE,29,1.0,1.0,88,0.00,,,0.00,0,weatherlink.com 1.10,2013-01-12 06:50:00,
2013-01-11 23:05:00,37.3,35.0,30.27,ENE,59,3.0,7.0,90,0.00,,,0.00,0,weatherlink.com 1.10,2013-01-12 07:05:00,
2013-01-11 23:20:00,36.3,34.0,30.26,NE,55,4.0,5.0,90,0.00,,,0.00,0,weatherlink.com 1.10,2013-01-12 07:20:00,
2013-01-11 23:35:00,36.0,34.0,30.26,NE,55,3.0,4.0,91,0.00,,,0.00,0,weatherlink.com 1.10,2013-01-12 07:35:00,
2013-01-11 23:50:00,36.0,34.0,30.26,NE,53,4.0,6.0,92,0.00,,,0.00,0,weatherlink.com 1.10,2013-01-12 07:50:00,